Temp
78 78 78 78 78 77 76 75 73 72 72 73 71 72 73 74 72 73 72 72 72 71 72 71 71 70 69 68 67 65 65 65 65 63 65 67 66 67 69 65 69 66 67
79 79 79 79 79 78 77 78 75 74 72 74 73 72 73 74 73 73 73 75 71 70 70 70 71 71 69 68 66 65 65 63 64 63 63 64 65 66 67 64 67 70 65
79 79 79 79 77 77 77 78 77 76 75 73 72 73 74 74 73 73 74 73 72 72 71 70 71 68 69 68 66 65 64 65 63 63 63 63 61 63 62 62 62 63 66
78 77 77 77 77 78 79 78 77 77 76 73 74 74 74 73 74 74 73 73 72 72 72 72 72 71 70 68 68 67 66 63 61 63 62 62 61 61 64 62 59 60 61
73 78 79 78 78 78 78 78 79 76 77 76 72 72 72 74 76 74 74 73 72 71 71 71 71 72 74 71 71 68 66 63 61 61 61 61 59 59 63 61 63 60 59
68 71 76 73 73 70 69 72 75 75 74 74 72 72 72 74 72 72 73 73 72 71 70 69 72 73 73 71 72 72 71 67 64 61 62 61 63 63 65 63 64 58 58
67 67 67 68 65 65 67 65 67 68 72 73 73 73 72 72 67 69 71 70 71 71 70 70 71 74 72 73 70 70 70 70 72 71 62 64 65 67 66 61 63 59 59
67 67 67 66 65 65 65 66 64 66 66 72 72 73 72 70 65 66 70 68 66 66 67 69 68 68 72 72 72 70 70 69 69 69 71 69 69 68 69 70 69 65 60
67 67 69 67 65 65 64 64 63 64 66 69 68 68 69 68 65 65 65 65 65 65 68 66 65 65 67 68 70 70 70 70 67 66 67 66 67 67 70 67 61 60 57
68 67 68 67 66 66 64 64 64 68 69 69 66 67 67 67 66 64 63 65 64 64 66 67 66 65 64 65 69 71 69 70 68 66 66 65 66 66 68 70 68 67 65
68 68 67 67 66 66 66 66 66 69 68 65 65 65 65 65 64 61 62 66 66 66 67 65 67 65 65 62 63 70 71 70 67 67 65 65 65 65 65 66 69 70 69
65 65 67 68 67 68 67 69 68 67 65 65 67 67 68 66 62 62 62 61 65 69 70 70 68 65 62 60 61 64 63 64 66 65 63 63 63 64 64 64 68 72 74
63 63 65 67 67 67 67 67 67 68 67 67 66 64 64 64 66 62 61 60 62 69 71 70 64 61 61 60 60 61 61 66 65 63 63 63 64 64 65 64 66 67 68
60 62 62 62 63 62 63 66 65 65 65 65 63 63 63 63 64 65 65 62 61 62 63 65 64 63 61 63 61 60 64 66 65 64 64 64 63 63 63 65 63 61 62
61 61 61 61 60 60 61 61 65 67 66 66 67 68 65 64 65 63 63 65 65 63 64 64 63 62 61 61 61 62 64 64 64 64 63 62 61 62 64 62 64 60 60
56 59 60 61 62 62 62 64 59 59 59 56 55 62 66 62 57 50 48 48 51 55 63 64 63 63 62 62 61 61 62 63 64 64 65 65 63 62 62 60 60 59 60
54 55 56 56 59 61 62 60 58 58 56 52 50 51 52 59 49 45 45 47 49 55 65 64 64 63 63 63 63 62 62 63 64 64 64 64 64 63 61 61 60 59 60
54 54 54 54 55 56 56 57 58 55 55 57 55 53 47 44 45 48 45 51 57 56 64 65 64 63 63 64 63 63 63 62 62 62 62 63 63 63 61 61 59 59 57
55 55 54 54 54 55 56 56 57 57 56 56 55 53 47 45 46 44 46 61 62 61 62 63 65 63 64 65 63 63 64 63 62 61 61 61 62 63 61 62 60 56 56
56 56 56 54 54 54 54 56 57 58 58 58 57 59 54 51 53 53 53 56 59 61 62 62 63 62 64 64 65 64 63 61 61 61 61 61 61 60 61 61 61 59 58
56 53 56 56 56 56 56 56 56 57 56 58 59 58 54 58 57 56 56 56 58 59 61 62 62 62 63 63 63 63 63 62 62 62 61 61 61 58 59 60 60 61 61
53 53 54 55 57 58 56 55 54 55 56 57 60 59 51 54 56 56 56 57 58 59 61 61 61 62 64 64 64 63 63 62 62 61 61 61 61 60 59 59 59 60 60
58 58 58 56 56 57 57 59 57 59 60 60 61 61 57 56 55 56 57 58 59 58 59 59 60 61 63 62 63 63 63 64 64 63 61 60 60 59 59 58 59 58 58
59 58 59 58 57 56 56 57 57 54 58 59 59 59 58 57 58 59 59 59 59 60 60 59 59 62 63 63 63 64 64 65 66 63 62 60 58 55 58 57 58 58 58
59 59 58 58 57 56 56 56 54 54 55 56 56 57 57 56 57 58 58 59 59 58 59 60 61 61 62 62 63 63 58 48 59 56 62 61 59 58 57 57 57 57 58
56 57 57 58 58 57 55 55 55 54 54 55 55 55 55 55 56 56 57 57 57 56 57 59 61 61 61 62 62 55 44 42 49 42 59 59 58 58 57 57 57 57 57
MSLP
1008.59 1009.11 1009.76 1010.27 1010.52 1010.91 1011.22 1011.30 1011.62 1011.85 1012.14 1012.41 1012.40 1012.78 1013.24 1013.40 1013.83 1014.19 1014.60 1015.07 1015.52 1015.95 1016.31 1016.63 1016.97 1017.24 1017.49 1017.87 1018.16 1018.48 1018.93 1019.26 1019.53 1019.57 1019.56 1019.54 1019.89 1019.97 1020.06 1020.48 1020.83 1021.22 1021.61
1008.37 1008.72 1009.06 1009.33 1010.04 1010.51 1010.56 1010.60 1011.14 1011.48 1011.87 1012.07 1012.26 1012.40 1012.64 1013.01 1013.32 1013.60 1013.90 1014.33 1014.95 1015.51 1015.87 1016.30 1016.58 1016.81 1017.12 1017.52 1018.05 1018.49 1018.80 1018.92 1019.05 1019.44 1019.53 1019.61 1019.60 1019.74 1019.80 1020.39 1020.64 1020.87 1021.27
1007.92 1008.37 1008.57 1008.79 1009.15 1009.43 1009.84 1010.30 1010.75 1011.08 1011.38 1011.80 1012.13 1012.23 1012.22 1012.54 1012.84 1013.20 1013.36 1013.72 1014.12 1014.55 1014.99 1015.52 1015.90 1016.56 1016.90 1017.11 1017.61 1018.23 1018.68 1018.83 1018.89 1019.09 1019.40 1019.53 1019.60 1019.73 1020.31 1020.58 1020.81 1020.99 1021.31
1009.34 1009.43 1008.14 1008.00 1008.15 1008.54 1008.79 1009.12 1009.73 1010.25 1010.75 1011.19 1011.53 1011.78 1011.79 1011.88 1012.17 1012.54 1012.84 1013.15 1013.58 1013.91 1014.30 1014.67 1014.97 1015.47 1016.00 1016.47 1016.79 1017.23 1017.84 1018.56 1018.72 1018.89 1019.14 1019.22 1019.26 1019.45 1019.78 1020.30 1020.95 1021.06 1021.23
1007.66 1007.88 1007.33 1008.73 1009.37 1008.87 1008.00 1008.05 1008.33 1009.03 1009.49 1010.27 1010.78 1011.06 1011.28 1011.43 1011.69 1012.10 1012.44 1012.72 1013.16 1013.52 1013.85 1014.26 1014.58 1014.76 1015.07 1015.50 1016.11 1016.58 1017.04 1017.63 1018.15 1018.43 1018.79 1018.95 1019.06 1019.32 1019.33 1019.80 1020.23 1020.67 1021.16
1006.82 1006.75 1007.24 1009.15 1009.07 1010.29 1010.85 1010.11 1008.38 1007.75 1008.58 1009.21 1009.92 1010.00 1010.49 1010.73 1010.94 1011.65 1012.23 1012.64 1012.90 1013.27 1013.69 1014.00 1014.11 1014.05 1014.11 1014.38 1014.76 1015.20 1015.74 1016.42 1017.05 1017.47 1017.74 1018.03 1017.92 1017.99 1018.41 1018.92 1019.84 1020.70 1021.21
1006.64 1006.63 1006.75 1007.28 1007.58 1010.30 1011.78 1010.92 1010.85 1009.34 1009.12 1008.70 1008.80 1009.23 1009.64 1010.03 1010.64 1010.73 1011.33 1012.12 1012.44 1012.87 1013.08 1013.26 1013.50 1013.67 1013.87 1013.93 1014.02 1014.34 1014.62 1014.80 1015.03 1015.66 1016.24 1016.51 1016.70 1016.99 1017.61 1018.37 1018.86 1019.24 1019.41
1006.74 1006.58 1006.53 1007.36 1007.39 1007.73 1009.03 1008.81 1010.40 1008.55 1008.29 1007.99 1008.36 1008.52 1008.61 1009.23 1009.63 1010.00 1010.18 1011.03 1011.94 1011.97 1012.18 1012.46 1012.94 1012.96 1013.05 1013.62 1013.77 1013.70 1013.96 1014.14 1014.16 1014.33 1014.52 1014.87 1015.21 1015.92 1016.43 1016.48 1017.18 1018.11 1018.88
1006.74 1006.82 1006.52 1007.02 1007.30 1007.40 1007.75 1006.75 1009.63 1009.96 1009.03 1009.01 1008.21 1008.88 1008.69 1008.44 1008.25 1008.05 1009.73 1010.77 1011.23 1011.41 1011.57 1012.22 1012.28 1011.98 1011.58 1011.96 1013.26 1013.30 1013.29 1013.13 1013.13 1013.37 1013.73 1014.07 1014.64 1014.85 1015.37 1016.18 1017.01 1018.12 1018.51
1006.69 1006.30 1006.24 1006.90 1006.74 1005.93 1007.22 1007.59 1008.21 1008.49 1008.32 1007.89 1008.40 1008.64 1008.19 1007.94 1007.42 1007.65 1008.66 1010.34 1011.21 1011.39 1011.13 1010.85 1010.14 1009.41 1011.00 1009.42 1011.69 1013.01 1012.70 1012.25 1012.87 1013.25 1013.74 1013.86 1014.24 1014.41 1014.75 1015.02 1015.72 1016.38 1016.87
1007.38 1006.96 1006.56 1006.44 1005.97 1005.85 1006.41 1007.07 1007.78 1007.68 1008.22 1008.23 1008.62 1008.11 1008.05 1008.20 1007.80 1007.74 1009.10 1009.81 1010.32 1010.86 1010.84 1010.17 1007.11 1006.49 1007.67 1008.68 1010.39 1011.72 1011.37 1011.47 1012.05 1012.51 1012.87 1013.37 1013.65 1013.90 1013.95 1014.33 1014.45 1014.87 1015.29
1007.85 1007.54 1007.14 1006.71 1006.44 1006.64 1006.86 1007.16 1007.72 1008.13 1007.98 1007.93 1008.07 1008.14 1007.96 1007.64 1007.76 1007.89 1008.38 1008.83 1009.29 1009.78 1009.34 1008.89 1008.05 1007.90 1008.49 1009.80 1010.16 1010.19 1010.55 1010.78 1011.40 1011.82 1011.57 1012.27 1012.93 1013.33 1013.32 1013.72 1013.90 1013.90 1014.16
1007.32 1007.36 1007.32 1007.15 1007.09 1007.01 1007.13 1007.19 1007.02 1006.98 1006.52 1006.26 1006.75 1007.17 1007.45 1007.35 1007.42 1007.55 1008.15 1008.15 1008.32 1008.71 1008.22 1008.24 1008.56 1008.79 1009.31 1009.73 1009.68 1009.52 1009.63 1010.04 1010.38 1010.99 1011.34 1011.52 1011.67 1012.04 1012.69 1013.09 1013.29 1013.57 1013.75
1006.94 1006.76 1006.97 1006.94 1006.91 1006.62 1006.74 1006.90 1006.63 1006.37 1005.78 1005.68 1006.41 1006.78 1006.56 1006.77 1006.57 1006.59 1006.96 1007.61 1007.72 1007.76 1007.51 1007.64 1008.39 1008.93 1009.30 1009.42 1009.28 1009.38 1009.09 1009.02 1009.42 1009.72 1010.15 1010.67 1011.42 1011.93 1012.11 1012.28 1012.84 1013.15 1013.56
1007.05 1006.72 1006.24 1006.35 1006.55 1006.47 1006.17 1006.02 1005.93 1005.60 1005.37 1005.35 1005.14 1005.02 1005.38 1005.47 1004.84 1004.83 1005.17 1005.75 1006.46 1006.82 1007.33 1007.84 1008.08 1008.37 1008.49 1008.82 1008.78 1008.94 1008.62 1008.70 1008.73 1009.31 1009.75 1010.18 1010.66 1011.10 1011.30 1011.71 1012.27 1012.80 1013.22
1007.59 1007.20 1006.59 1006.15 1005.57 1005.61 1005.74 1005.46 1005.09 1005.00 1004.89 1004.81 1004.16 1004.23 1004.13 1004.01 1003.94 1004.41 1004.78 1005.02 1005.84 1006.47 1007.23 1007.76 1007.95 1008.01 1007.99 1008.11 1008.43 1008.51 1008.74 1008.53 1008.44 1008.64 1009.14 1009.54 1009.94 1010.16 1010.58 1011.22 1011.69 1012.10 1012.57
1007.94 1007.35 1006.90 1006.60 1006.05 1005.46 1004.99 1004.73 1004.54 1004.80 1004.71 1004.53 1004.50 1004.16 1003.61 1002.78 1003.30 1004.16 1004.59 1004.73 1005.42 1005.87 1006.29 1006.73 1006.98 1007.30 1007.41 1007.77 1007.79 1008.24 1008.45 1008.22 1008.42 1008.54 1008.58 1008.71 1009.33 1009.70 1009.95 1010.42 1010.98 1011.60 1011.94
1007.22 1006.99 1006.76 1006.37 1005.89 1005.47 1005.37 1004.98 1004.40 1004.59 1004.27 1004.41 1004.01 1004.42 1003.81 1003.35 1003.27 1003.82 1004.20 1004.81 1005.74 1005.57 1005.18 1005.28 1005.82 1006.20 1006.52 1006.80 1007.06 1007.08 1007.41 1007.74 1008.03 1007.98 1008.24 1008.37 1008.58 1008.86 1009.27 1009.68 1010.20 1010.66 1011.20
1006.94 1006.34 1006.10 1005.65 1005.18 1004.97 1005.16 1004.86 1004.20 1003.68 1003.77 1004.03 1004.43 1005.69 1003.18 1003.39 1003.97 1003.97 1004.03 1004.20 1004.77 1004.94 1004.89 1004.90 1004.91 1005.13 1005.41 1005.90 1006.13 1006.26 1006.79 1006.94 1007.15 1007.38 1007.51 1007.82 1007.87 1007.97 1008.40 1008.80 1009.19 1009.62 1010.22
1006.80 1006.31 1005.75 1005.20 1004.88 1004.66 1004.78 1004.39 1003.90 1003.39 1002.32 1003.23 1004.34 1003.49 1003.24 1004.92 1004.40 1004.16 1003.75 1003.69 1003.88 1004.12 1004.49 1004.82 1004.63 1004.59 1004.61 1004.56 1005.29 1005.31 1005.47 1005.99 1006.17 1006.42 1006.70 1006.88 1007.00 1007.31 1007.59 1007.91 1008.26 1008.68 1009.22
1006.37 1006.18 1005.83 1005.20 1004.57 1004.09 1003.52 1003.15 1002.80 1002.65 1002.27 1001.77 1001.58 1002.57 1004.10 1003.96 1002.88 1002.54 1002.77 1002.84 1003.03 1003.53 1003.72 1003.88 1003.81 1003.81 1003.79 1003.98 1004.22 1004.51 1004.79 1004.82 1005.20 1005.20 1005.57 1005.93 1006.24 1006.55 1006.68 1006.89 1007.39 1007.68 1008.08
1006.04 1005.54 1005.04 1004.61 1004.14 1003.52 1002.97 1002.70 1002.39 1002.21 1001.99 1002.00 1001.82 1001.75 1002.33 1002.07 1001.73 1001.82 1001.87 1002.04 1002.37 1002.71 1002.88 1003.25 1003.19 1003.12 1003.05 1003.13 1003.39 1003.56 1003.59 1003.74 1004.05 1004.17 1004.55 1004.83 1005.21 1005.52 1005.80 1006.19 1006.59 1006.87 1007.22
1005.84 1005.19 1004.51 1004.03 1003.65 1003.32 1003.01 1002.57 1002.03 1001.48 1001.32 1001.42 1001.61 1001.74 1001.76 1001.70 1001.59 1001.49 1001.56 1001.97 1002.17 1002.13 1002.16 1002.31 1002.30 1002.34 1002.15 1002.33 1002.33 1002.48 1002.67 1002.45 1002.62 1003.13 1003.59 1003.92 1004.26 1004.74 1004.98 1005.25 1005.74 1006.14 1006.41
1005.53 1004.89 1004.19 1003.48 1003.00 1002.93 1002.86 1002.42 1002.10 1001.88 1001.73 1001.57 1001.53 1001.27 1001.21 1001.23 1001.16 1001.23 1001.42 1001.55 1001.67 1001.63 1001.43 1001.36 1001.28 1001.29 1001.40 1001.28 1001.30 1001.58 1001.65 1001.50 1001.71 1002.10 1002.53 1003.07 1003.42 1003.93 1004.21 1004.47 1004.83 1005.21 1005.53
1005.61 1005.04 1004.35 1003.60 1003.02 1002.90 1002.65 1002.48 1002.31 1002.07 1001.82 1001.59 1001.37 1001.21 1001.07 1001.04 1001.00 1001.08 1001.02 1000.94 1001.10 1001.33 1001.11 1000.89 1000.67 1000.41 1000.38 1000.38 1000.52 1000.64 1000.72 1000.49 1001.00 1001.18 1001.78 1002.23 1002.55 1002.86 1003.20 1003.58 1003.95 1004.38 1004.82
1006.47 1005.87 1005.22 1004.41 1003.77 1003.30 1003.05 1002.79 1002.43 1002.00 1001.79 1001.62 1001.50 1001.36 1001.27 1001.23 1001.21 1001.08 1001.03 1001.06 1001.13 1001.04 1000.80 1000.43 1000.25 1000.04 1000.16 1000.15 999.98 999.93 999.65 999.67 1000.43 1000.57 1001.10 1001.47 1001.74 1002.03 1002.40 1002.77 1003.05 1003.51 1003.98
Wind_Speed
13 13 12 11 12 10 10 9 10 7 8 8 8 9 10 10 8 8 7 6 8 6 5 7 7 6 4 3 3 2 3 3 4 2 1 3 4 5 5 5 6 6 5
12 12 14 13 12 11 12 12 8 10 9 10 8 9 8 9 8 10 11 9 9 7 7 5 6 4 6 5 4 5 4 3 4 5 4 2 4 5 5 6 6 5 5
9 11 11 12 11 13 13 11 9 10 10 9 7 10 10 10 10 10 10 10 9 9 8 8 8 7 5 4 5 4 3 3 3 3 4 2 1 3 3 2 3 2 3
8 8 10 12 13 13 13 13 11 11 11 9 10 10 10 11 11 11 10 9 9 8 8 9 8 9 9 8 6 7 5 5 3 3 3 2 2 2 3 4 3 2 3
7 12 14 7 8 11 13 13 12 10 11 10 9 8 8 9 8 10 9 10 9 7 6 6 6 9 12 11 7 7 6 5 4 4 3 3 3 3 9 3 5 3 3
4 7 8 5 6 12 14 14 7 8 9 9 11 12 10 9 12 12 9 8 6 6 5 5 6 12 14 17 17 15 14 10 9 5 4 5 6 5 5 6 5 4 3
1 3 9 12 15 14 14 21 15 10 9 11 11 11 11 7 11 15 14 6 6 6 6 5 6 7 10 10 15 17 18 20 14 13 8 9 6 9 8 6 7 5 5
5 7 9 12 14 15 11 15 19 13 17 13 9 11 10 8 10 10 15 10 8 8 7 6 5 5 6 10 12 12 14 13 15 11 14 13 10 9 12 14 14 8 2
6 8 10 11 12 9 9 11 8 10 22 14 3 5 9 10 18 23 13 6 7 8 7 6 8 9 12 11 12 14 13 14 11 13 11 8 10 12 13 6 5 5 4
6 6 4 5 6 6 14 17 21 15 15 8 5 7 9 9 12 5 10 4 6 6 4 7 6 7 13 11 12 15 13 16 11 8 8 7 9 9 13 13 10 11 6
5 7 7 4 4 5 8 10 16 19 14 9 8 7 8 8 6 6 11 6 6 7 7 8 3 10 26 15 15 17 19 13 13 10 8 8 8 8 9 10 9 10 9
5 6 7 5 4 5 10 12 15 15 13 9 7 5 8 7 11 10 14 16 11 9 8 7 8 22 17 15 14 23 16 9 8 9 11 11 10 11 9 8 11 9 8
7 5 6 6 5 5 9 12 9 11 10 7 6 5 5 5 5 14 15 16 17 11 7 8 9 12 18 15 17 17 14 8 8 9 9 9 10 9 8 6 6 7 5
7 7 3 4 6 5 4 5 5 5 5 5 5 5 5 5 6 6 6 7 7 6 1 2 4 5 8 6 4 6 7 8 10 10 9 7 5 7 8 8 6 4 4
9 9 9 4 5 5 6 5 5 5 6 5 7 6 5 5 5 8 8 6 7 8 6 2 1 2 2 3 3 4 5 6 7 7 6 7 7 7 7 5 4 4 7
8 8 8 9 9 5 5 7 11 15 15 18 15 12 8 9 5 5 8 6 5 17 4 5 5 4 5 5 5 5 5 9 8 8 8 8 8 8 8 4 4 5 8
6 7 7 8 7 6 4 4 6 3 8 12 14 16 13 7 6 1 2 5 14 14 5 6 7 6 7 7 7 7 8 9 8 7 8 8 8 7 8 7 7 6 8
7 9 6 7 7 6 4 3 2 3 4 7 8 11 10 2 4 6 10 9 3 3 5 7 8 7 7 7 8 7 7 5 7 7 8 8 9 8 8 8 8 9 8
10 8 8 7 7 8 8 6 5 5 3 2 7 8 3 4 7 8 12 4 4 4 5 6 8 6 7 7 7 7 8 7 8 7 7 8 9 9 9 10 9 12 11
9 14 13 8 7 6 6 9 9 9 7 6 4 5 4 5 3 4 3 4 4 4 5 8 8 5 6 7 7 6 7 7 8 8 8 8 8 9 10 10 10 10 10
5 7 15 8 6 7 7 8 7 5 4 1 5 4 13 7 4 3 3 4 3 4 6 8 8 7 6 6 7 7 8 8 9 9 9 9 9 9 9 9 10 11 11
5 6 7 7 7 6 6 6 4 4 3 3 4 3 9 4 2 2 2 3 4 5 5 7 7 7 7 8 8 8 9 9 10 9 9 9 9 9 9 9 10 10 11
7 8 7 7 5 6 4 5 5 3 4 3 3 4 4 3 2 1 2 3 4 4 5 6 7 7 7 8 8 8 9 10 9 8 9 9 9 9 10 9 10 9 11
8 9 10 7 6 4 4 6 4 5 4 4 4 3 1 1 2 3 3 4 4 5 5 6 7 10 10 10 8 9 9 9 7 9 12 10 10 10 9 8 9 12 10
10 11 10 10 6 4 5 5 5 5 5 5 4 3 3 3 4 4 4 4 4 4 6 6 7 10 13 15 13 13 12 13 11 9 8 12 12 13 12 10 10 9 9
9 12 10 9 9 7 5 5 6 5 4 4 4 4 3 3 4 4 4 4 3 4 6 5 6 9 13 11 15 16 13 14 12 13 10 10 11 10 10 12 14 10 12
Wind_Direction
195 199 200 210 215 210 216 215 200 200 208 219 205 186 195 201 191 190 187 185 195 196 201 196 201 186 212 196 161 145 172 169 167 299 207 203 163 163 181 153 173 164 189
209 203 204 203 212 223 221 221 193 200 208 217 220 213 192 204 195 199 196 197 198 198 204 204 214 171 202 200 181 192 194 197 147 186 185 201 186 199 175 159 177 182 180
198 205 215 214 207 212 221 227 216 212 206 210 212 214 210 202 192 204 202 200 197 199 190 192 208 180 207 201 194 184 194 195 192 154 192 171 163 161 124 127 171 168 179
344 277 226 209 202 215 221 213 204 208 212 206 209 216 215 205 199 197 198 200 208 206 200 202 203 185 194 199 199 202 182 185 189 178 194 187 158 193 157 167 178 179 179
187 219 228 225 267 242 218 217 213 205 210 203 198 209 211 204 205 200 202 204 206 206 201 204 205 206 206 198 190 205 187 182 188 186 191 172 173 151 200 169 192 151 202
253 262 274 130 258 6 358 327 260 198 194 194 204 201 194 210 209 199 198 201 200 202 211 226 231 210 213 204 204 200 193 193 200 183 195 196 204 199 169 181 168 145 220
116 9 107 109 103 100 29 1 322 338 314 215 205 195 205 195 171 175 177 172 170 175 188 207 217 237 230 221 219 215 205 201 194 199 195 205 189 194 170 169 190 181 202
175 162 136 125 119 113 122 53 310 341 301 280 217 205 177 162 170 190 174 167 163 183 198 206 207 242 236 230 236 225 225 217 213 209 214 207 203 184 188 192 197 194 66
203 211 187 172 149 126 139 124 220 245 266 258 218 205 197 189 183 189 170 184 175 194 206 184 215 216 211 207 241 241 239 237 232 227 225 208 205 193 193 159 162 155 212
294 291 285 224 170 156 159 181 202 240 259 270 234 219 252 236 243 186 151 189 219 231 222 221 266 270 224 178 223 249 252 246 216 205 220 220 211 209 201 203 185 204 202
283 299 280 261 237 192 212 195 218 245 254 245 233 219 226 234 264 159 167 189 205 208 213 240 201 272 263 269 243 248 242 239 212 213 210 209 204 204 200 207 203 202 210
284 291 299 286 252 232 233 232 228 230 218 213 211 202 216 214 207 216 221 204 219 222 206 211 213 247 265 228 240 243 242 214 192 203 191 205 208 213 207 206 214 210 221
310 271 241 271 252 235 214 233 226 219 217 213 194 197 205 206 214 206 218 211 211 215 204 192 204 226 249 258 249 237 213 199 185 190 207 219 215 213 201 186 186 199 211
302 304 254 226 257 278 260 260 238 234 233 190 194 224 217 213 207 190 179 174 193 222 280 247 222 210 215 237 231 223 212 194 193 196 200 203 179 177 191 194 206 173 188
331 318 315 297 213 229 239 237 250 254 231 224 222 214 206 242 242 203 199 178 175 185 153 132 227 237 214 221 216 230 206 193 191 195 190 185 182 185 195 177 183 174 201
318 317 321 319 320 311 295 285 240 238 251 243 230 213 226 216 196 208 212 199 157 151 153 182 206 212 216 209 213 215 219 211 208 194 197 196 194 188 185 173 176 182 201
280 296 309 309 305 310 340 1 343 292 276 256 259 259 234 178 166 0 308 151 168 162 173 182 200 202 212 214 205 205 220 215 217 211 205 197 199 197 178 187 191 189 201
276 260 267 276 280 269 244 226 164 321 308 317 277 268 235 184 166 168 140 121 117 257 205 201 208 199 205 214 209 209 212 200 211 216 213 211 205 198 192 198 195 192 194
303 294 291 281 277 266 258 231 219 185 197 302 17 242 68 131 162 132 164 152 178 215 241 245 238 204 199 206 216 203 208 205 203 201 207 212 216 199 202 203 195 189 180
305 298 299 298 284 271 252 243 243 231 165 157 221 292 31 315 220 184 172 173 184 208 234 244 240 226 219 204 235 214 206 211 206 207 213 211 207 201 215 204 198 189 194
307 293 288 279 257 267 270 259 250 256 271 246 174 204 230 229 196 160 176 168 189 225 243 247 238 223 219 220 219 214 218 220 222 214 213 213 209 207 211 209 205 200 194
276 274 285 290 293 288 275 261 236 250 243 214 233 217 233 243 226 213 212 216 205 209 224 233 236 227 224 229 221 216 217 219 226 217 213 213 214 210 204 200 205 201 194
315 312 300 290 281 291 289 294 285 270 272 240 245 248 222 256 246 297 282 254 227 227 224 213 233 244 235 221 216 218 224 227 222 214 215 211 208 207 197 195 198 197 193
334 336 335 312 291 297 305 312 303 273 268 258 243 265 287 192 187 206 220 240 243 241 235 224 222 231 243 235 220 219 223 230 225 213 207 209 206 201 198 196 196 200 198
354 354 350 351 354 339 340 342 336 334 332 327 323 323 335 332 317 288 260 259 267 272 265 257 248 246 234 233 231 221 221 205 215 218 201 206 209 203 199 199 193 198 195
359 10 0 1 7 10 5 347 328 302 301 305 297 286 285 288 271 271 289 305 299 293 287 273 264 252 258 254 243 233 221 213 214 214 205 204 203 201 199 201 198 195 200